| time (UTC) | temp F | wind direction | speed knots | gust knots | rain 1hr in | rain 24hr in | rain mn in | humidity % | barometer mb |
| 20260507054003 | 71 | 46 | 0.9 | 2.6 | 0.00 | 0.00 | 0.00 | 84 | 1016.5 |
| 20260507053504 | 71 | 108 | 2.6 | 7.8 | 0.00 | 0.00 | 0.00 | 85 | 1016.6 |
| 20260507053006 | 72 | 99 | 3.5 | 8.7 | 0.00 | 0.00 | 0.00 | 85 | 1016.6 |
| 20260507052504 | 72 | 134 | 4.3 | 7.0 | 0.00 | 0.00 | 0.00 | 86 | 1016.5 |
| 20260507052004 | 72 | 70 | 2.6 | 4.3 | 0.00 | 0.00 | 0.00 | 86 | 1016.5 |
| 20260507051503 | 72 | 96 | 2.6 | 7.0 | 0.00 | 0.00 | 0.00 | 86 | 1016.6 |
| 20260507051003 | 72 | 133 | 2.6 | 5.2 | 0.00 | 0.00 | 0.00 | 86 | 1016.6 |
| 20260507050503 | 72 | 124 | 0.9 | 7.0 | 0.00 | 0.00 | 0.00 | 86 | 1016.7 |
| 20260507050006 | 72 | 142 | 3.5 | 7.0 | 0.00 | 0.00 | 0.00 | 86 | 1016.8 |
| 20260507045504 | 72 | 148 | 0.9 | 7.0 | 0.00 | 0.00 | 0.00 | 86 | 1016.9 |
| 20260507045003 | 72 | 105 | 1.7 | 7.0 | 0.00 | 0.00 | 0.00 | 86 | 1016.9 |
| 20260507044503 | 72 | 132 | 2.6 | 7.0 | 0.00 | 0.00 | 0.00 | 86 | 1017.0 |
| 20260507044004 | 72 | 125 | 2.6 | 5.2 | 0.00 | 0.00 | 0.00 | 86 | 1017.0 |
| 20260507043503 | 72 | 117 | 2.6 | 6.1 | 0.00 | 0.00 | 0.00 | 86 | 1017.1 |
| 20260507043006 | 72 | 89 | 1.7 | 4.3 | 0.00 | 0.00 | 0.00 | 86 | 1017.2 |
| 20260507042504 | 72 | 161 | 1.7 | 5.2 | 0.00 | 0.00 | 0.00 | 86 | 1017.2 |
| 20260507042003 | 72 | 106 | 0.9 | 2.6 | 0.00 | 0.00 | 0.00 | 87 | 1017.2 |
| 20260507041504 | 72 | 106 | 4.3 | 7.8 | 0.00 | 0.00 | 0.00 | 87 | 1017.1 |
| 20260507041004 | 72 | 144 | 2.6 | 7.8 | 0.00 | 0.00 | 0.00 | 87 | 1017.1 |
| 20260507040504 | 72 | 123 | 4.3 | 11.3 | 0.00 | 0.00 | 0.00 | 87 | 1017.2 |
| 20260507040006 | 72 | 139 | 2.6 | 8.7 | 0.00 | 0.00 | 0.00 | 87 | 1017.2 |
| 20260507035503 | 72 | 145 | 3.5 | 10.4 | 0.00 | 0.00 | 0.00 | 87 | 1017.3 |
| 20260507035004 | 72 | 152 | 5.2 | 8.7 | 0.00 | 0.00 | 0.00 | 87 | 1017.2 |
| 20260507034503 | 72 | 129 | 4.3 | 8.7 | 0.00 | 0.00 | 0.00 | 88 | 1017.3 |
| 20260507034003 | 72 | 147 | 4.3 | 8.7 | 0.00 | 0.00 | 0.00 | 88 | 1017.3 |
| 20260507033503 | 72 | 132 | 2.6 | 8.7 | 0.00 | 0.00 | 0.00 | 89 | 1017.3 |
| 20260507033006 | 72 | 91 | 3.5 | 7.0 | 0.00 | 0.00 | 0.00 | 89 | 1017.3 |
| 20260507032504 | 72 | 135 | 4.3 | 10.4 | 0.00 | 0.00 | 0.00 | 89 | 1017.3 |
| 20260507032004 | 73 | 119 | 3.5 | 8.7 | 0.00 | 0.00 | 0.00 | 89 | 1017.3 |
| 20260507031504 | 73 | 120 | 1.7 | 6.1 | 0.00 | 0.00 | 0.00 | 89 | 1017.3 |
| 20260507031003 | 72 | 105 | 2.6 | 7.0 | 0.00 | 0.00 | 0.00 | 89 | 1017.3 |
| 20260507030504 | 72 | 123 | 2.6 | 7.8 | 0.00 | 0.00 | 0.00 | 89 | 1017.3 |
| 20260507030006 | 73 | 91 | 1.7 | 7.8 | 0.00 | 0.00 | 0.00 | 88 | 1017.3 |
| 20260507025503 | 73 | 144 | 2.6 | 5.2 | 0.00 | 0.00 | 0.00 | 88 | 1017.3 |
| 20260507025003 | 73 | 95 | 1.7 | 5.2 | 0.00 | 0.00 | 0.00 | 88 | 1017.3 |
| 20260507024504 | 73 | 142 | 2.6 | 8.7 | 0.00 | 0.00 | 0.00 | 88 | 1017.3 |
| 20260507024004 | 73 | 131 | 1.7 | 7.0 | 0.00 | 0.00 | 0.00 | 88 | 1017.3 |
| 20260507023504 | 73 | 137 | 0.0 | 7.0 | 0.00 | 0.00 | 0.00 | 88 | 1017.2 |
| 20260507023006 | 73 | 130 | 2.6 | 8.7 | 0.00 | 0.00 | 0.00 | 88 | 1017.2 |
| 20260507022504 | 73 | 93 | 1.7 | 10.4 | 0.00 | 0.00 | 0.00 | 87 | 1017.1 |
| 20260507022004 | 73 | 153 | 4.3 | 7.8 | 0.00 | 0.00 | 0.00 | 87 | 1017.0 |
| 20260507021504 | 73 | 138 | 3.5 | 8.7 | 0.00 | 0.00 | 0.00 | 87 | 1017.1 |
| 20260507021004 | 73 | 128 | 3.5 | 8.7 | 0.00 | 0.00 | 0.00 | 87 | 1017.1 |
| 20260507020503 | 73 | 137 | 1.7 | 10.4 | 0.00 | 0.00 | 0.00 | 87 | 1017.0 |
| 20260507020006 | 73 | 117 | 2.6 | 10.4 | 0.00 | 0.00 | 0.00 | 86 | 1017.0 |
| 20260507015503 | 74 | 134 | 2.6 | 8.7 | 0.00 | 0.00 | 0.00 | 86 | 1016.8 |
| 20260507015004 | 74 | 118 | 4.3 | 12.2 | 0.00 | 0.00 | 0.00 | 85 | 1016.8 |
| 20260507014503 | 74 | 120 | 4.3 | 10.4 | 0.00 | 0.00 | 0.00 | 85 | 1016.8 |
| 20260507014004 | 74 | 147 | 4.3 | 8.7 | 0.00 | 0.00 | 0.00 | 85 | 1016.7 |
| 20260507013504 | 74 | 160 | 2.6 | 7.0 | 0.00 | 0.00 | 0.00 | 85 | 1016.6 |
| 20260507013006 | 74 | 144 | 5.2 | 10.4 | 0.00 | 0.00 | 0.00 | 84 | 1016.6 |
| 20260507012504 | 74 | 146 | 2.6 | 8.7 | 0.00 | 0.00 | 0.00 | 84 | 1016.5 |
| 20260507012004 | 74 | 150 | 2.6 | 10.4 | 0.00 | 0.00 | 0.00 | 83 | 1016.5 |
| 20260507011503 | 75 | 136 | 5.2 | 8.7 | 0.00 | 0.00 | 0.00 | 83 | 1016.5 |
| 20260507011004 | 75 | 149 | 2.6 | 6.1 | 0.00 | 0.00 | 0.00 | 82 | 1016.4 |
| 20260507010504 | 75 | 110 | 0.9 | 6.1 | 0.00 | 0.00 | 0.00 | 82 | 1016.3 |
| 20260507010006 | 75 | 110 | 3.5 | 7.8 | 0.00 | 0.00 | 0.00 | 82 | 1016.2 |
| 20260507005504 | 75 | 148 | 4.3 | 10.4 | 0.00 | 0.00 | 0.00 | 81 | 1016.2 |
| 20260507005003 | 76 | 136 | 3.5 | 7.8 | 0.00 | 0.00 | 0.00 | 80 | 1016.0 |
| 20260507004504 | 76 | 141 | 2.6 | 7.0 | 0.00 | 0.00 | 0.00 | 79 | 1016.0 |
| 20260507004004 | 76 | 130 | 2.6 | 8.7 | 0.00 | 0.00 | 0.00 | 78 | 1015.9 |
| 20260507003504 | 76 | 160 | 1.7 | 5.2 | 0.00 | 0.00 | 0.00 | 78 | 1015.9 |
| 20260507003006 | 76 | 151 | 2.6 | 10.4 | 0.00 | 0.00 | 0.00 | 78 | 1015.8 |
| 20260507002504 | 76 | 128 | 2.6 | 7.8 | 0.00 | 0.00 | 0.00 | 77 | 1015.9 |
| 20260507002003 | 76 | 106 | 3.5 | 7.0 | 0.00 | 0.00 | 0.00 | 76 | 1015.8 |
| 20260507001503 | 76 | 137 | 5.2 | 10.4 | 0.00 | 0.00 | 0.00 | 76 | 1015.7 |
| 20260507001004 | 76 | 148 | 3.5 | 7.0 | 0.00 | 0.00 | 0.00 | 75 | 1015.5 |
| 20260507000504 | 77 | 146 | 4.3 | 8.7 | 0.00 | 0.00 | 0.00 | 75 | 1015.5 |
| 20260507000006 | 77 | 156 | 4.3 | 8.7 | 0.00 | 0.00 | 0.00 | 75 | 1015.4 |
| 20260506235504 | 77 | 166 | 4.3 | 6.1 | 0.00 | 0.00 | 0.00 | 74 | 1015.4 |
| 20260506235004 | 77 | 113 | 5.2 | 10.4 | 0.00 | 0.00 | 0.00 | 73 | 1015.3 |
| 20260506234504 | 77 | 120 | 4.3 | 7.8 | 0.00 | 0.00 | 0.00 | 73 | 1015.2 |
| 20260506234004 | 78 | 170 | 1.7 | 10.4 | 0.00 | 0.00 | 0.00 | 73 | 1015.3 |
| 20260506233504 | 78 | 87 | 1.7 | 10.4 | 0.00 | 0.00 | 0.00 | 71 | 1015.2 |
| 20260506233006 | 79 | 91 | 4.3 | 11.3 | 0.00 | 0.00 | 0.00 | 68 | 1015.2 |
| 20260506232503 | 79 | 168 | 0.9 | 7.8 | 0.00 | 0.00 | 0.00 | 67 | 1015.0 |
| 20260506232004 | 79 | 125 | 3.5 | 7.0 | 0.00 | 0.00 | 0.00 | 65 | 1015.0 |
| 20260506231503 | 80 | 156 | 4.3 | 8.7 | 0.00 | 0.00 | 0.00 | 64 | 1014.8 |
| 20260506231004 | 80 | 137 | 2.6 | 7.0 | 0.00 | 0.00 | 0.00 | 62 | 1014.7 |
| 20260506230504 | 80 | 128 | 2.6 | 6.1 | 0.00 | 0.00 | 0.00 | 61 | 1014.7 |
| 20260506230006 | 80 | 136 | 4.3 | 8.7 | 0.00 | 0.00 | 0.00 | 59 | 1014.7 |
| 20260506225503 | 80 | 110 | 5.2 | 8.7 | 0.00 | 0.00 | 0.00 | 58 | 1014.5 |
| 20260506225003 | 80 | 105 | 1.7 | 6.1 | 0.00 | 0.00 | 0.00 | 58 | 1014.5 |
| 20260506224504 | 80 | 49 | 5.2 | 11.3 | 0.00 | 0.00 | 0.00 | 58 | 1014.4 |
| 20260506224004 | 81 | 64 | 4.3 | 10.4 | 0.00 | 0.00 | 0.00 | 57 | 1014.3 |
| 20260506223504 | 81 | 84 | 1.7 | 7.0 | 0.00 | 0.00 | 0.00 | 56 | 1014.3 |
| 20260506223006 | 81 | 154 | 3.5 | 8.7 | 0.00 | 0.00 | 0.00 | 56 | 1014.2 |
| 20260506222503 | 81 | 116 | 2.6 | 7.8 | 0.00 | 0.00 | 0.00 | 56 | 1014.1 |
| 20260506222004 | 81 | 55 | 2.6 | 7.0 | 0.00 | 0.00 | 0.00 | 56 | 1014.1 |
| 20260506221504 | 81 | 80 | 5.2 | 10.4 | 0.00 | 0.00 | 0.00 | 55 | 1014.1 |
| 20260506221003 | 81 | 93 | 2.6 | 7.0 | 0.00 | 0.00 | 0.00 | 55 | 1014.1 |
| 20260506220503 | 81 | 136 | 4.3 | 7.8 | 0.00 | 0.00 | 0.00 | 54 | 1014.0 |
| 20260506220005 | 81 | 144 | 4.3 | 10.4 | 0.00 | 0.00 | 0.00 | 54 | 1014.0 |
| 20260506215504 | 82 | 43 | 3.5 | 10.4 | 0.00 | 0.00 | 0.00 | 54 | 1014.0 |
| 20260506215004 | 82 | 113 | 2.6 | 8.7 | 0.00 | 0.00 | 0.00 | 53 | 1014.0 |
| 20260506214503 | 82 | 173 | 5.2 | 8.7 | 0.00 | 0.00 | 0.00 | 53 | 1014.0 |
| 20260506214003 | 82 | 154 | 4.3 | 7.8 | 0.00 | 0.00 | 0.00 | 53 | 1013.9 |
| 20260506213504 | 82 | 148 | 3.5 | 7.8 | 0.00 | 0.00 | 0.00 | 52 | 1013.7 |
| 20260506213006 | 83 | 186 | 1.7 | 8.7 | 0.00 | 0.00 | 0.00 | 51 | 1013.6 |
| 20260506212503 | 83 | 103 | 1.7 | 7.8 | 0.00 | 0.00 | 0.00 | 51 | 1013.7 |
| 20260506212003 | 83 | 166 | 2.6 | 7.0 | 0.00 | 0.00 | 0.00 | 50 | 1013.6 |
| 20260506211504 | 83 | 158 | 1.7 | 5.2 | 0.00 | 0.00 | 0.00 | 50 | 1013.5 |
| 20260506211004 | 83 | 47 | 1.7 | 7.8 | 0.00 | 0.00 | 0.00 | 50 | 1013.4 |
| 20260506210504 | 83 | 125 | 6.1 | 13.0 | 0.00 | 0.00 | 0.00 | 49 | 1013.4 |
| 20260506210006 | 84 | 130 | 4.3 | 11.3 | 0.00 | 0.00 | 0.00 | 48 | 1013.3 |
| 20260506205504 | 84 | 140 | 2.6 | 7.0 | 0.00 | 0.00 | 0.00 | 47 | 1013.2 |
| 20260506205003 | 84 | 131 | 1.7 | 7.0 | 0.00 | 0.00 | 0.00 | 47 | 1013.2 |
| 20260506204504 | 83 | 129 | 2.6 | 10.4 | 0.00 | 0.00 | 0.00 | 47 | 1013.1 |
| 20260506204004 | 83 | 111 | 4.3 | 10.4 | 0.00 | 0.00 | 0.00 | 48 | 1013.2 |
| 20260506203503 | 83 | 110 | 4.3 | 10.4 | 0.00 | 0.00 | 0.00 | 48 | 1013.2 |
| 20260506203006 | 83 | 150 | 5.2 | 11.3 | 0.00 | 0.00 | 0.00 | 48 | 1013.3 |
| 20260506202504 | 83 | 135 | 5.2 | 11.3 | 0.00 | 0.00 | 0.00 | 48 | 1013.3 |
| 20260506202004 | 84 | 140 | 2.6 | 11.3 | 0.00 | 0.00 | 0.00 | 47 | 1013.3 |
| 20260506201504 | 84 | 136 | 4.3 | 11.3 | 0.00 | 0.00 | 0.00 | 47 | 1013.4 |
| 20260506201004 | 84 | 150 | 3.5 | 7.8 | 0.00 | 0.00 | 0.00 | 46 | 1013.4 |
| 20260506200504 | 83 | 113 | 2.6 | 7.0 | 0.00 | 0.00 | 0.00 | 46 | 1013.4 |
| 20260506200006 | 83 | 164 | 6.1 | 10.4 | 0.00 | 0.00 | 0.00 | 47 | 1013.5 |
| 20260506195504 | 83 | 174 | 3.5 | 12.2 | 0.00 | 0.00 | 0.00 | 46 | 1013.7 |
| 20260506195004 | 83 | 145 | 4.3 | 12.2 | 0.00 | 0.00 | 0.00 | 47 | 1013.8 |
| 20260506194504 | 83 | 147 | 1.7 | 7.8 | 0.00 | 0.00 | 0.00 | 47 | 1013.7 |
| 20260506194003 | 83 | 134 | 5.2 | 11.3 | 0.00 | 0.00 | 0.00 | 48 | 1013.8 |
| 20260506193504 | 83 | 163 | 3.5 | 8.7 | 0.00 | 0.00 | 0.00 | 48 | 1013.8 |
| 20260506193006 | 83 | 127 | 4.3 | 17.4 | 0.00 | 0.00 | 0.00 | 47 | 1013.8 |
| 20260506192504 | 84 | 89 | 5.2 | 10.4 | 0.00 | 0.00 | 0.00 | 46 | 1014.0 |
| 20260506192004 | 85 | 107 | 2.6 | 7.8 | 0.00 | 0.00 | 0.00 | 44 | 1014.0 |
| 20260506191504 | 85 | 158 | 4.3 | 7.8 | 0.00 | 0.00 | 0.00 | 43 | 1014.0 |
| 20260506191003 | 84 | 143 | 4.3 | 7.0 | 0.00 | 0.00 | 0.00 | 44 | 1014.0 |
| 20260506190503 | 84 | 120 | 3.5 | 7.0 | 0.00 | 0.00 | 0.00 | 46 | 1014.1 |
| 20260506190006 | 83 | 91 | 5.2 | 12.2 | 0.00 | 0.00 | 0.00 | 47 | 1014.3 |
| 20260506185504 | 83 | 114 | 6.1 | 12.2 | 0.00 | 0.00 | 0.00 | 46 | 1014.5 |
| 20260506185004 | 83 | 128 | 5.2 | 13.0 | 0.00 | 0.00 | 0.00 | 46 | 1014.5 |
| 20260506184504 | 83 | 99 | 4.3 | 7.0 | 0.00 | 0.00 | 0.00 | 46 | 1014.5 |
| 20260506184003 | 82 | 110 | 0.9 | 7.0 | 0.00 | 0.00 | 0.00 | 48 | 1014.6 |
| 20260506183504 | 83 | 104 | 5.2 | 13.0 | 0.00 | 0.00 | 0.00 | 46 | 1014.7 |
| 20260506183006 | 83 | 79 | 4.3 | 13.0 | 0.00 | 0.00 | 0.00 | 46 | 1014.7 |
| 20260506182504 | 83 | 118 | 5.2 | 11.3 | 0.00 | 0.00 | 0.00 | 45 | 1014.8 |
| 20260506182003 | 83 | 145 | 5.2 | 10.4 | 0.00 | 0.00 | 0.00 | 44 | 1014.8 |
| 20260506181504 | 84 | 176 | 5.2 | 11.3 | 0.00 | 0.00 | 0.00 | 44 | 1014.9 |
| 20260506181003 | 84 | 172 | 4.3 | 13.9 | 0.00 | 0.00 | 0.00 | 42 | 1015.1 |
| 20260506180503 | 84 | 123 | 6.1 | 12.2 | 0.00 | 0.00 | 0.00 | 44 | 1015.2 |
| 20260506180007 | 83 | 74 | 2.6 | 8.7 | 0.00 | 0.00 | 0.00 | 45 | 1015.2 |
| 20260506175503 | 83 | 82 | 4.3 | 10.4 | 0.00 | 0.00 | 0.00 | 45 | 1015.5 |
| 20260506175004 | 83 | 168 | 4.3 | 10.4 | 0.00 | 0.00 | 0.00 | 44 | 1015.7 |
| 20260506174504 | 82 | 103 | 6.1 | 13.0 | 0.00 | 0.00 | 0.00 | 46 | 1015.7 |
| 20260506174004 | 83 | 84 | 7.8 | 13.0 | 0.00 | 0.00 | 0.00 | 46 | 1015.8 |
| 20260506173503 | 83 | 89 | 7.0 | 14.8 | 0.00 | 0.00 | 0.00 | 45 | 1015.8 |
| 20260506173006 | 83 | 156 | 2.6 | 10.4 | 0.00 | 0.00 | 0.00 | 45 | 1015.8 |
| 20260506172504 | 83 | 134 | 6.1 | 11.3 | 0.00 | 0.00 | 0.00 | 45 | 1015.9 |
| 20260506172004 | 83 | 156 | 4.3 | 11.3 | 0.00 | 0.00 | 0.00 | 45 | 1016.0 |
| 20260506171503 | 83 | 79 | 4.3 | 10.4 | 0.00 | 0.00 | 0.00 | 44 | 1016.0 |
| 20260506171004 | 83 | 136 | 4.3 | 15.6 | 0.00 | 0.00 | 0.00 | 45 | 1016.1 |
| 20260506170504 | 82 | 128 | 10.4 | 17.4 | 0.00 | 0.00 | 0.00 | 46 | 1016.2 |
| 20260506170006 | 82 | 133 | 5.2 | 10.4 | 0.00 | 0.00 | 0.00 | 47 | 1016.4 |
| 20260506165504 | 82 | 161 | 7.0 | 11.3 | 0.00 | 0.00 | 0.00 | 47 | 1016.4 |
| 20260506165003 | 82 | 166 | 6.1 | 11.3 | 0.00 | 0.00 | 0.00 | 46 | 1016.4 |
| 20260506164504 | 83 | 140 | 4.3 | 12.2 | 0.00 | 0.00 | 0.00 | 47 | 1016.6 |
| 20260506164004 | 82 | 98 | 1.7 | 7.8 | 0.00 | 0.00 | 0.00 | 50 | 1016.7 |
| 20260506163504 | 81 | 105 | 5.2 | 11.3 | 0.00 | 0.00 | 0.00 | 52 | 1016.8 |
| 20260506163006 | 81 | 71 | 5.2 | 12.2 | 0.00 | 0.00 | 0.00 | 51 | 1017.0 |
| 20260506162504 | 81 | 103 | 6.1 | 11.3 | 0.00 | 0.00 | 0.00 | 52 | 1017.0 |
| 20260506162004 | 81 | 107 | 7.8 | 14.8 | 0.00 | 0.00 | 0.00 | 52 | 1017.3 |
| 20260506161503 | 81 | 112 | 10.4 | 15.6 | 0.00 | 0.00 | 0.00 | 52 | 1017.3 |
| 20260506161004 | 81 | 99 | 2.6 | 7.8 | 0.00 | 0.00 | 0.00 | 53 | 1017.3 |
| 20260506160504 | 80 | 149 | 6.1 | 11.3 | 0.00 | 0.00 | 0.00 | 52 | 1017.4 |
| 20260506160006 | 80 | 125 | 6.1 | 10.4 | 0.00 | 0.00 | 0.00 | 52 | 1017.4 |
| 20260506155504 | 80 | 145 | 4.3 | 10.4 | 0.00 | 0.00 | 0.00 | 52 | 1017.4 |
| 20260506155004 | 80 | 183 | 3.5 | 10.4 | 0.00 | 0.00 | 0.00 | 53 | 1017.5 |
| 20260506154503 | 79 | 152 | 7.8 | 17.4 | 0.00 | 0.00 | 0.00 | 54 | 1017.6 |
| 20260506154003 | 80 | 177 | 5.2 | 8.7 | 0.00 | 0.00 | 0.00 | 52 | 1017.5 |
| 20260506153503 | 80 | 168 | 5.2 | 7.8 | 0.00 | 0.00 | 0.00 | 51 | 1017.7 |
| 20260506153006 | 80 | 120 | 6.1 | 10.4 | 0.00 | 0.00 | 0.00 | 52 | 1017.7 |
| 20260506152504 | 80 | 138 | 4.3 | 14.8 | 0.00 | 0.00 | 0.00 | 51 | 1017.9 |
| 20260506152004 | 80 | 129 | 6.1 | 13.9 | 0.00 | 0.00 | 0.00 | 51 | 1018.0 |
| 20260506151503 | 79 | 92 | 6.1 | 13.0 | 0.00 | 0.00 | 0.00 | 51 | 1018.0 |
| 20260506151004 | 79 | 126 | 5.2 | 11.3 | 0.00 | 0.00 | 0.00 | 53 | 1018.0 |
| 20260506150503 | 79 | 111 | 4.3 | 10.4 | 0.00 | 0.00 | 0.00 | 54 | 1018.0 |
| 20260506150006 | 79 | 139 | 2.6 | 11.3 | 0.00 | 0.00 | 0.00 | 55 | 1018.0 |
| 20260506145503 | 79 | 161 | 4.3 | 10.4 | 0.00 | 0.00 | 0.00 | 55 | 1018.0 |
| 20260506145004 | 79 | 120 | 2.6 | 7.0 | 0.00 | 0.00 | 0.00 | 58 | 1018.1 |
| 20260506144504 | 78 | 141 | 5.2 | 10.4 | 0.00 | 0.00 | 0.00 | 58 | 1018.1 |
| 20260506144004 | 78 | 118 | 4.3 | 12.2 | 0.00 | 0.00 | 0.00 | 60 | 1018.1 |
| 20260506143504 | 78 | 158 | 6.1 | 12.2 | 0.00 | 0.00 | 0.00 | 60 | 1018.1 |
| 20260506143006 | 78 | 153 | 4.3 | 8.7 | 0.00 | 0.00 | 0.00 | 63 | 1018.1 |
| 20260506142503 | 77 | 92 | 2.6 | 7.0 | 0.00 | 0.00 | 0.00 | 64 | 1018.3 |
| 20260506142004 | 77 | 163 | 3.5 | 7.8 | 0.00 | 0.00 | 0.00 | 66 | 1018.3 |
| 20260506141503 | 76 | 148 | 5.2 | 12.2 | 0.00 | 0.00 | 0.00 | 66 | 1018.3 |
| 20260506141003 | 76 | 136 | 5.2 | 10.4 | 0.00 | 0.00 | 0.00 | 67 | 1018.4 |
| 20260506140504 | 76 | 153 | 2.6 | 11.3 | 0.00 | 0.00 | 0.00 | 68 | 1018.4 |
| 20260506140006 | 76 | 153 | 4.3 | 11.3 | 0.00 | 0.00 | 0.00 | 70 | 1018.4 |
| 20260506135503 | 76 | 146 | 6.1 | 13.0 | 0.00 | 0.00 | 0.00 | 69 | 1018.4 |
| 20260506135003 | 76 | 102 | 5.2 | 12.2 | 0.00 | 0.00 | 0.00 | 70 | 1018.4 |
| 20260506134504 | 76 | 148 | 6.1 | 10.4 | 0.00 | 0.00 | 0.00 | 69 | 1018.4 |
| 20260506134004 | 76 | 140 | 5.2 | 13.0 | 0.00 | 0.00 | 0.00 | 70 | 1018.4 |
| 20260506133503 | 75 | 143 | 5.2 | 8.7 | 0.00 | 0.00 | 0.00 | 72 | 1018.2 |
| 20260506133006 | 75 | 134 | 5.2 | 12.2 | 0.00 | 0.00 | 0.00 | 73 | 1018.2 |
| 20260506132503 | 75 | 155 | 4.3 | 7.0 | 0.00 | 0.00 | 0.00 | 72 | 1018.2 |
| 20260506132003 | 74 | 129 | 2.6 | 7.8 | 0.00 | 0.00 | 0.00 | 74 | 1018.2 |
| 20260506131504 | 74 | 142 | 4.3 | 10.4 | 0.00 | 0.00 | 0.00 | 74 | 1018.3 |
| 20260506131004 | 74 | 102 | 4.3 | 8.7 | 0.00 | 0.00 | 0.00 | 74 | 1018.3 |
| 20260506130503 | 74 | 91 | 2.6 | 7.0 | 0.00 | 0.00 | 0.00 | 74 | 1018.3 |
| 20260506130006 | 74 | 95 | 6.1 | 12.2 | 0.00 | 0.00 | 0.00 | 75 | 1018.2 |
| 20260506125503 | 74 | 84 | 3.5 | 7.8 | 0.00 | 0.00 | 0.00 | 74 | 1018.1 |
| 20260506125004 | 74 | 60 | 2.6 | 7.0 | 0.00 | 0.00 | 0.00 | 74 | 1018.0 |
| 20260506124503 | 75 | 95 | 6.1 | 10.4 | 0.00 | 0.00 | 0.00 | 72 | 1018.0 |
| 20260506124004 | 75 | 18 | 1.7 | 10.4 | 0.00 | 0.00 | 0.00 | 73 | 1017.9 |
| 20260506123504 | 75 | 151 | 4.3 | 8.7 | 0.00 | 0.00 | 0.00 | 73 | 1017.8 |
| 20260506123006 | 74 | 117 | 1.7 | 7.8 | 0.00 | 0.00 | 0.00 | 73 | 1017.7 |
| 20260506122503 | 74 | 107 | 2.6 | 10.4 | 0.00 | 0.00 | 0.00 | 74 | 1017.7 |
| 20260506122003 | 73 | 218 | 2.6 | 7.0 | 0.00 | 0.00 | 0.00 | 75 | 1017.6 |
| 20260506121503 | 73 | 115 | 4.3 | 8.7 | 0.00 | 0.00 | 0.00 | 76 | 1017.6 |
| 20260506121004 | 73 | 116 | 3.5 | 7.8 | 0.00 | 0.00 | 0.00 | 76 | 1017.4 |
| 20260506120503 | 72 | 152 | 4.3 | 7.0 | 0.00 | 0.00 | 0.00 | 77 | 1017.4 |
| 20260506120006 | 72 | 145 | 1.7 | 8.7 | 0.00 | 0.00 | 0.00 | 77 | 1017.4 |
| 20260506115505 | 72 | 159 | 5.2 | 8.7 | 0.00 | 0.00 | 0.00 | 77 | 1017.3 |
| 20260506115004 | 72 | 118 | 1.7 | 6.1 | 0.00 | 0.00 | 0.00 | 78 | 1017.3 |
| 20260506114503 | 72 | 124 | 3.5 | 5.2 | 0.00 | 0.00 | 0.00 | 79 | 1017.3 |
| 20260506114004 | 71 | 142 | 4.3 | 8.7 | 0.00 | 0.00 | 0.00 | 80 | 1017.2 |
| 20260506113503 | 71 | 158 | 3.5 | 7.0 | 0.00 | 0.00 | 0.00 | 80 | 1017.1 |
| 20260506113006 | 71 | 142 | 2.6 | 6.1 | 0.00 | 0.00 | 0.00 | 81 | 1017.1 |
| 20260506112504 | 71 | 128 | 1.7 | 4.3 | 0.00 | 0.00 | 0.00 | 81 | 1017.2 |
| 20260506112004 | 70 | 8 | 0.9 | 2.6 | 0.00 | 0.00 | 0.00 | 82 | 1017.1 |
| 20260506111504 | 70 | 0 | 0.0 | 1.7 | 0.00 | 0.00 | 0.00 | 82 | 1017.0 |
| 20260506111004 | 70 | 0 | 0.0 | 0.9 | 0.00 | 0.00 | 0.00 | 81 | 1017.0 |
| 20260506110504 | 69 | 0 | 0.9 | 1.7 | 0.00 | 0.00 | 0.00 | 81 | 1016.9 |
| 20260506110006 | 69 | 0 | 0.0 | 1.7 | 0.00 | 0.00 | 0.00 | 82 | 1016.9 |
| 20260506105504 | 69 | 0 | 0.9 | 2.6 | 0.00 | 0.00 | 0.00 | 82 | 1016.8 |
| 20260506105004 | 69 | 0 | 0.0 | 0.0 | 0.00 | 0.00 | 0.00 | 82 | 1016.8 |
| 20260506104504 | 69 | 0 | 0.0 | 0.9 | 0.00 | 0.00 | 0.00 | 82 | 1016.8 |
| 20260506104004 | 69 | 0 | 0.0 | 0.0 | 0.00 | 0.00 | 0.00 | 82 | 1016.8 |
| 20260506103504 | 69 | 0 | 0.0 | 2.6 | 0.00 | 0.00 | 0.00 | 81 | 1016.8 |
| 20260506103006 | 69 | 0 | 0.9 | 2.6 | 0.00 | 0.00 | 0.00 | 81 | 1016.6 |
| 20260506102504 | 69 | 0 | 0.9 | 2.6 | 0.00 | 0.00 | 0.00 | 81 | 1016.6 |
| 20260506102004 | 69 | 0 | 1.7 | 2.6 | 0.00 | 0.00 | 0.00 | 81 | 1016.6 |
| 20260506101503 | 69 | 0 | 1.7 | 2.6 | 0.00 | 0.00 | 0.00 | 81 | 1016.5 |
| 20260506101004 | 69 | 0 | 0.0 | 0.0 | 0.00 | 0.00 | 0.00 | 80 | 1016.5 |
| 20260506100504 | 69 | 0 | 0.9 | 2.6 | 0.00 | 0.00 | 0.00 | 80 | 1016.6 |
| 20260506100005 | 69 | 0 | 0.9 | 1.7 | 0.00 | 0.00 | 0.00 | 81 | 1016.6 |
| 20260506095504 | 69 | 0 | 0.0 | 1.7 | 0.00 | 0.00 | 0.00 | 81 | 1016.5 |
| 20260506095003 | 69 | 0 | 0.0 | 0.0 | 0.00 | 0.00 | 0.00 | 81 | 1016.5 |
| 20260506094504 | 69 | 0 | 0.0 | 0.0 | 0.00 | 0.00 | 0.00 | 80 | 1016.5 |
| 20260506094004 | 69 | 0 | 0.0 | 1.7 | 0.00 | 0.00 | 0.00 | 80 | 1016.4 |
| 20260506093504 | 69 | 0 | 0.0 | 1.7 | 0.00 | 0.00 | 0.00 | 79 | 1016.3 |
| 20260506093006 | 69 | 0 | 0.9 | 2.6 | 0.00 | 0.00 | 0.00 | 79 | 1016.3 |
| 20260506092503 | 69 | 0 | 0.0 | 0.0 | 0.00 | 0.00 | 0.00 | 79 | 1016.3 |
| 20260506092004 | 69 | 0 | 0.0 | 2.6 | 0.00 | 0.00 | 0.00 | 78 | 1016.3 |
| 20260506091504 | 69 | 0 | 0.0 | 2.6 | 0.00 | 0.00 | 0.00 | 79 | 1016.3 |
| 20260506091004 | 69 | 0 | 0.0 | 2.6 | 0.00 | 0.00 | 0.00 | 79 | 1016.3 |
| 20260506090504 | 69 | 0 | 0.9 | 2.6 | 0.00 | 0.00 | 0.00 | 78 | 1016.3 |
| 20260506090005 | 69 | 359 | 0.9 | 2.6 | 0.00 | 0.00 | 0.00 | 79 | 1016.5 |
| 20260506085504 | 69 | 355 | 1.7 | 2.6 | 0.00 | 0.00 | 0.00 | 79 | 1016.4 |
| 20260506085004 | 69 | 19 | 0.0 | 0.0 | 0.00 | 0.00 | 0.00 | 79 | 1016.4 |
| 20260506084504 | 69 | 19 | 0.0 | 2.6 | 0.00 | 0.00 | 0.00 | 78 | 1016.3 |
| 20260506084004 | 69 | 19 | 0.9 | 1.7 | 0.00 | 0.00 | 0.00 | 78 | 1016.2 |
| 20260506083504 | 69 | 19 | 0.9 | 2.6 | 0.00 | 0.00 | 0.00 | 78 | 1016.2 |
| 20260506083006 | 68 | 19 | 0.9 | 4.3 | 0.00 | 0.00 | 0.00 | 78 | 1016.2 |
| 20260506082504 | 68 | 21 | 0.9 | 4.3 | 0.00 | 0.00 | 0.00 | 78 | 1016.1 |
| 20260506082004 | 69 | 353 | 2.6 | 4.3 | 0.00 | 0.00 | 0.00 | 79 | 1016.0 |
| 20260506081503 | 69 | 341 | 2.6 | 2.6 | 0.00 | 0.00 | 0.00 | 80 | 1016.0 |
| 20260506081003 | 69 | 338 | 2.6 | 2.6 | 0.00 | 0.00 | 0.00 | 79 | 1015.9 |
| 20260506080504 | 69 | 24 | 0.0 | 2.6 | 0.00 | 0.00 | 0.00 | 80 | 1015.9 |
| 20260506073504 | 69 | 24 | 0.9 | 2.6 | 0.00 | 0.00 | 0.00 | 79 | 1016.2 |
| 20260506073006 | 69 | 24 | 2.6 | 2.6 | 0.00 | 0.00 | 0.00 | 79 | 1016.1 |
| 20260506072503 | 69 | 24 | 0.0 | 1.7 | 0.00 | 0.00 | 0.00 | 80 | 1016.1 |
| 20260506072004 | 69 | 24 | 0.0 | 1.7 | 0.00 | 0.00 | 0.00 | 80 | 1016.2 |
| 20260506071504 | 69 | 24 | 1.7 | 2.6 | 0.00 | 0.00 | 0.00 | 79 | 1016.1 |
| 20260506071004 | 69 | 24 | 0.9 | 2.6 | 0.00 | 0.00 | 0.00 | 80 | 1016.1 |
| 20260506070504 | 69 | 24 | 1.7 | 2.6 | 0.00 | 0.00 | 0.00 | 80 | 1016.0 |
| 20260506062504 | 70 | 320 | 1.7 | 2.6 | 0.00 | 0.00 | 0.00 | 80 | 1016.1 |
| 20260506062003 | 70 | 144 | 0.0 | 1.7 | 0.00 | 0.00 | 0.00 | 80 | 1016.1 |
| 20260506061504 | 70 | 144 | 0.0 | 0.9 | 0.00 | 0.00 | 0.00 | 80 | 1016.0 |
| 20260506061004 | 70 | 144 | 0.9 | 1.7 | 0.00 | 0.00 | 0.00 | 81 | 1016.0 |
| 20260506060504 | 70 | 144 | 0.0 | 0.0 | 0.00 | 0.00 | 0.00 | 82 | 1016.0 |